Regional Weather Roundup
Issued by NWS

Home | Current Version | Previous Version | Text Only | Print | Product List | Glossary Off
Versions: 1 2 3 4 5 6 7 8 9 10 11 12 13 14 15 16 17 18 19 20 21 22 23 24 25 26 27 28 29 30 31 32 33 34 35 36 37 38 39 40 41 42 43 44 45 46 47 48 49 50

000
ASUS43 KIND 161659
RWRIN

WEATHER ROUNDUP FOR INDIANA
NATIONAL WEATHER SERVICE INDIANAPOLIS IN
100 PM EDT TUE SEP 16 2014

NOTE: "FAIR" INDICATES FEW OR NO CLOUDS BELOW 12,000 FEET WITH NO
SIGNIFICANT WEATHER AND/OR OBSTRUCTIONS TO VISIBILITY.

* - STATION DOES NOT REPORT WEATHER SUCH AS PRECIPITATION OR FOG.

+ - STATION NOT QUALITY CONTROLLED BY THE NATIONAL WEATHER SERVICE.
    USE DATA WITH CAUTION...ESPECIALLY DEWPOINT AND RELATIVE
    HUMIDITY OBSERVATIONS.

INZ001>003-010>013-019-020-161800-
NORTHWEST INDIANA

CITY           SKY/WX    TMP DP  RH WIND       PRES   REMARKS
GARY /AIRPORT/ MOSUNNY   64  43  45 VRB5      30.20F
VALPARAISO     CLOUDY    60  49  66 NW3       30.19F

$$

LMZ046-743>745-161800-
SOUTHERN LAKE MICHIGAN

STATION/POSITION TIME  TEMP WIND        PRES
                       AIR  DIR/SP/G
                 (UTC) (F)  (DEG/KT/KT) (MB)
MICHIGAN CITY    1600   58  230/  8/  9   N/A

$$

INZ004-005-014>016-021>024-161800-
NORTH CENTRAL INDIANA

CITY           SKY/WX    TMP DP  RH WIND       PRES   REMARKS
GOSHEN         SUNNY     62  43  49 VRB3      30.17F
SOUTH BEND     NOT AVBL

$$

INZ006>009-017-018-025>027-161800-
NORTHEAST INDIANA

CITY           SKY/WX    TMP DP  RH WIND       PRES   REMARKS
ANGOLA *+      MOSUNNY   63  46  55 VRB5      30.16F
FORT WAYNE     MOSUNNY   59  47  64 CALM      30.18F

$$

INZ028-029-035-036-043>045-051>053-161800-
WEST CENTRAL INDIANA

CITY           SKY/WX    TMP DP  RH WIND       PRES   REMARKS
GREENCASTLE +  CLOUDY    59  50  72 NE6       30.19F
LAFAYETTE      PTSUNNY   60  50  69 W5        30.19F
TERRE HAUTE    CLOUDY    59  53  80 CALM      30.20S

$$

INZ030>032-037>040-046>048-054>057-064-065-161800-
CENTRAL INDIANA

CITY           SKY/WX    TMP DP  RH WIND       PRES   REMARKS
ANDERSON       CLOUDY    59  48  67 CALM      30.19F
COLUMBUS       CLOUDY    55  54  94 N6        30.19F
INDIANAPOLIS   PTSUNNY   60  49  66 N5        30.18F
-EAGLE CREEK   CLOUDY    61  48  62 CALM      30.18S
KOKOMO *+      SUNNY     63  48  59 N7        30.18F
MT COMFORT *+  PTSUNNY   59  50  72 CALM      30.19F
SHELBYVILLE    CLOUDY    60  51  72 N5        30.18F

$$

INZ033-034-041-042-049-050-058-059-161800-
EAST CENTRAL INDIANA

CITY           SKY/WX    TMP DP  RH WIND       PRES   REMARKS
MUNCIE         CLOUDY    59  48  67 N5        30.17F

$$

INZ060-061-067>069-081>083-085>088-161800-
SOUTHWEST INDIANA

CITY           SKY/WX    TMP DP  RH WIND       PRES   REMARKS
EVANSVILLE     CLOUDY    63  53  70 NE7       30.18F

$$

INZ062-063-066-070>080-084-089>092-161800-
SOUTH CENTRAL AND SOUTHEAST INDIANA

CITY           SKY/WX    TMP DP  RH WIND       PRES   REMARKS
BLOOMINGTON    CLOUDY    59  50  72 NE6       30.19S
SEYMOUR +      CLOUDY    61  54  77 N9        30.17

$$



USA.gov is the U.S. government's official web portal to all federal, state and local government web resources and services.